GSAT-10

Last updated on Sun Apr 12 2026 00:02:52 GMT+0000 (Coordinated Universal Time)

1 38779U 12051B 26101.47406078 -.00000163 00000+0 00000+0 0 9998 2 38779 0.0668 265.2543 0006592 174.4120 13.6920 1.00272357 49421
UTC large
Height (km)
Speed (km/s)
/
Latitude / Longitude
Inclination (degrees)
Orbital Period (minutes)
Azimuth
Elevation
Range (km)
Doppler Factor

Next 0 passes for location: London (51.5072 / 0.1276)

Sorry there are no passes over London.